This is the latest recevied weather packets stored in our database for station/object K4VEB. If no packets are shown the sender has not sent any weather packets the latest 10 day(s).
| Time | Temp. | Humidity | Pressure | Rain* | Wind** | Luminosity | Snow |
|---|---|---|---|---|---|---|---|
| 1777940157 | 23.89° C | 56% | 1015 hPa | 0 mm | - | 1 W/m² | - |
| 1777939855 | 23.89° C | 56% | 1015.2 hPa | 0 mm | - | 2 W/m² | - |
| 1777939552 | 24.44° C | 55% | 1014.7 hPa | 0 mm | - | 4 W/m² | - |
| 1777939250 | 24.44° C | 55% | 1014.6 hPa | 0 mm | - | 6 W/m² | - |
| 1777938946 | 24.44° C | 55% | 1014.6 hPa | 0 mm | - | 9 W/m² | - |
| 1777938643 | 24.44° C | 55% | 1014.5 hPa | 0 mm | - | 12 W/m² | - |
| 1777938340 | 24.44° C | 54% | 1014.4 hPa | 0 mm | - | 16 W/m² | - |
| 1777938037 | 25° C | 53% | 1014.4 hPa | 0 mm | - | 19 W/m² | - |
| 1777937732 | 25° C | 52% | 1014.4 hPa | 0 mm | - | 24 W/m² | - |
| 1777937429 | 25° C | 52% | 1014.3 hPa | 0 mm | - | 27 W/m² | - |
| 1777937126 | 25.56° C | 51% | 1014.2 hPa | 0 mm | - | 31 W/m² | - |
| 1777936824 | 25.56° C | 50% | 1014.4 hPa | 0 mm | - | 38 W/m² | - |
| 1777936520 | 25.56° C | 50% | 1014.1 hPa | 0 mm | - | 48 W/m² | - |
| 1777936216 | 25.56° C | 50% | 1014.1 hPa | 0 mm | - | 59 W/m² | - |
| 1777935913 | 26.11° C | 50% | 1014.1 hPa | 0 mm | - | 73 W/m² | - |
| 1777935612 | 25.56° C | 49% | 1014.1 hPa | 0 mm | - | 86 W/m² | - |
| 1777935308 | 26.11° C | 49% | 1014.2 hPa | 0 mm | - | 65 W/m² | - |
| 1777935005 | 26.67° C | 48% | 1014.2 hPa | 0 mm | - | 69 W/m² | - |
| 1777934701 | 26.67° C | 47% | 1014 hPa | 0 mm | - | 126 W/m² | - |
| 1777934399 | 26.67° C | 46% | 1014.2 hPa | 0 mm | - | 134 W/m² | - |
| 1777934095 | 26.67° C | 47% | 1014.1 hPa | 0 mm | - | 152 W/m² | - |
| 1777933791 | 26.67° C | 47% | 1014.2 hPa | 0 mm | - | 164 W/m² | - |
| 1777933489 | 26.11° C | 47% | 1014.2 hPa | 0 mm | - | 189 W/m² | - |
| 1777933186 | 26.11° C | 47% | 1014.3 hPa | 0 mm | - | 186 W/m² | - |
| 1777932883 | 26.67° C | 47% | 1014.3 hPa | 0 mm | - | 84 W/m² | - |
* Rain latest hour (hover to see other rain measurements)
** Current wind speed in m/s (hover to see current wind gust speed)